Regional Weather Roundup
Issued by NWS

Home | Current Version | Previous Version | Text Only | Print | Product List | Glossary Off
Versions: 1 2 3 4 5 6 7 8 9 10 11 12 13 14 15 16 17 18 19 20 21 22 23 24 25 26 27 28 29 30 31 32 33 34 35 36 37 38 39 40 41 42 43 44 45 46 47 48 49 50

000
ASUS43 KLMK 250302
RWRKY
KENTUCKY REGIONAL WEATHER ROUNDUP
NATIONAL WEATHER SERVICE LOUISVILLE KY
1100 PM EDT SUN SEP 24 2017

NOTE "FAIR" INDICATES FEW OR NO CLOUDS BELOW 12,000 FEET
WITH NO SIGNIFICANT WEATHER AND/OR OBSTRUCTIONS TO VISIBILITY.

KYZ001>023-026-027-061>063-070>075-250400-
WESTERN AND SOUTH CENTRAL KENTUCKY

CITY           SKY/WX    TMP DP  RH WIND       PRES   REMARKS
PADUCAH        CLEAR     71  64  78 CALM      29.99S
HENDERSON      CLEAR     70  66  87 SE3       30.01S
OWENSBORO      PTCLDY    76  67  73 CALM      30.01F
HOPKINSVILLE   CLOUDY    73  70  91 CALM      30.01S
BOWLING GREEN  CLEAR     73  71  93 CALM      30.02S
GLASGOW        CLEAR     69  69 100 N5        30.03S
$$

KYZ024-025-028>034-038-045-046-053-250400-
NORTH CENTRAL KENTUCKY

CITY           SKY/WX    TMP DP  RH WIND       PRES   REMARKS
LOUISVILLE/SDF PTCLDY    78  60  53 CALM      30.03R
LOUISVILLE/LOU PTCLDY    72  65  78 CALM      30.03F
FORT KNOX      CLOUDY    66  63  90 CALM      30.02S
$$

KYZ035>037-039>044-047>052-055>060-089>105-250400-
NORTHEAST KENTUCKY

CITY           SKY/WX    TMP DP  RH WIND       PRES   REMARKS
LEXINGTON      PTCLDY    76  59  55 E5        30.06S
COVINGTON      MOCLDY    75  55  49 E3        30.06S
FRANKFORT      CLEAR     68  61  78 CALM      30.04S
$$

KYZ054-064>069-076>088-106>120-250400-
SOUTHEAST KENTUCKY

CITY           SKY/WX    TMP DP  RH WIND       PRES   REMARKS
JACKSON        PTCLDY    73  59  61 CALM      30.09R
LONDON         CLEAR     69  65  86 CALM      30.07S
SOMERSET       PTCLDY    68  68 100 CALM      30.07S
MIDDLESBORO    CLEAR     65  64  94 CALM      30.09S
MONTICELLO     CLOUDY    67  66  97 NE8       30.07S
$$





USA.gov is the U.S. government's official web portal to all federal, state and local government web resources and services.